ALTO-WX Weather Reports


time (UTC)temp
F
wind
direction
speed
knots
gust
knots
rain 1hr
in
rain 24hr
in
rain mn
in
humidity
%
barometer
mb
20260505130107 52 296 10.4 0.0 0.00 0.00 0.00 50 976.3
20260505124535 53 299 7.0 0.0 0.00 0.00 0.00 59 975.6
20260505123055 52 299 6.1 0.0 0.00 0.00 0.00 57 974.1
20260505121535 51 320 6.1 0.0 0.00 0.00 0.00 57 974.1
20260505120117 51 328 7.0 0.0 0.00 0.00 0.00 57 974.1
20260505114536 51 317 7.8 0.0 0.00 0.00 0.00 59 973.9
20260505113053 51 328 8.7 0.0 0.00 0.00 0.00 64 972.4
20260505111535 50 340 8.7 0.0 0.00 0.00 0.00 64 972.3
20260505110111 50 330 9.6 0.0 0.00 0.00 0.00 64 972.3
20260505101535 52 283 8.7 0.0 0.00 0.00 0.00 49 970.9
20260505100109 52 269 8.7 0.0 0.00 0.00 0.00 49 970.9
20260505094535 52 269 7.8 0.0 0.00 0.00 0.00 50 971.2
20260505093058 53 266 7.8 0.0 0.00 0.00 0.00 49 970.7
20260505091535 53 249 8.7 0.0 0.00 0.00 0.00 49 970.7
20260505090113 53 258 7.8 0.0 0.00 0.00 0.00 49 970.7
20260505084534 54 269 7.8 0.0 0.00 0.00 0.00 66 971.2
20260505083054 53 260 8.7 0.0 0.00 0.00 0.00 70 970.4
20260505081535 53 246 8.7 0.0 0.00 0.00 0.00 70 970.4
20260505080106 54 244 9.6 0.0 0.00 0.00 0.00 58 970.6
20260505074535 54 247 10.4 0.0 0.00 0.00 0.00 71 969.8
20260505073056 55 243 8.7 0.0 0.00 0.00 0.00 71 969.8
20260505071536 56 231 12.2 0.0 0.00 0.00 0.00 71 969.9
20260505070107 57 217 10.4 0.0 0.00 0.00 0.00 71 969.9
20260505064535 56 239 9.6 0.0 0.00 0.00 0.00 63 970.4
20260505063052 57 242 9.6 0.0 0.00 0.00 0.00 75 969.8
20260505061536 57 243 8.7 0.0 0.00 0.00 0.00 75 969.8
20260505060114 58 240 9.6 0.0 0.00 0.00 0.00 75 969.8
20260505054536 58 237 9.6 0.0 0.00 0.00 0.00 70 971.1
20260505053059 59 244 11.3 0.0 0.00 0.00 0.00 62 969.6
20260505051535 60 245 13.0 0.0 0.00 0.00 0.00 62 969.6
20260505050104 61 243 13.9 0.0 0.00 0.00 0.00 62 969.6
20260505041535 62 211 13.0 0.0 0.01 0.01 0.01 64 969.4
20260505040110 62 245 17.4 0.0 0.01 0.01 0.01 64 969.4
20260505034532 63 227 13.0 0.0 0.00 0.00 0.00 57 969.3
20260505033055 62 213 17.4 0.0 0.00 0.00 0.00 65 969.3
20260505031535 62 208 14.8 0.0 0.00 0.00 0.00 65 969.3
20260505030106 62 204 15.6 0.0 0.00 0.00 0.00 65 969.3
20260505024535 63 200 18.2 0.0 0.00 0.00 0.00 51 969.6
20260505023055 63 205 16.5 0.0 0.00 0.00 0.00 56 969.6
20260505021535 63 206 17.4 0.0 0.00 0.00 0.00 56 969.5
20260505020106 64 209 17.4 0.0 0.00 0.00 0.00 56 969.5
20260505014534 64 212 17.4 0.0 0.00 0.00 0.00 46 968.7
20260505013053 64 208 16.5 0.0 0.00 0.00 0.00 46 968.7
20260505011535 64 207 17.4 0.0 0.00 0.00 0.00 46 968.6
20260505004535 66 206 8.7 0.0 0.00 0.00 0.00 41 969.4
20260505003052 66 202 6.1 0.0 0.00 0.00 0.00 40 970.1
20260505001534 67 205 6.1 0.0 0.00 0.00 0.00 40 970.0
20260505000109 68 213 7.0 0.0 0.00 0.00 0.00 40 970.0
20260504234535 69 223 8.7 0.0 0.00 0.00 0.00 34 970.1
20260504233053 70 225 10.4 0.0 0.00 0.00 0.00 35 969.9
20260504231534 71 234 11.3 0.0 0.00 0.00 0.00 35 969.9
20260504230101 71 240 13.0 0.0 0.00 0.00 0.00 35 969.9
20260504224535 71 244 14.8 0.0 0.00 0.00 0.00 37 969.8
20260504223055 72 249 15.6 0.0 0.00 0.00 0.00 37 970.2
20260504221534 72 246 16.5 0.0 0.00 0.00 0.00 37 970.2
20260504220109 72 245 16.5 0.0 0.00 0.00 0.00 37 970.2
20260504214533 72 243 17.4 0.0 0.00 0.00 0.00 34 971.1
20260504213056 72 236 16.5 0.0 0.00 0.00 0.00 34 971.1
20260504211534 72 239 18.2 0.0 0.00 0.00 0.00 32 970.0
20260504210106 72 237 17.4 0.0 0.00 0.00 0.00 32 970.0
20260504204539 72 236 19.1 0.0 0.00 0.00 0.00 29 970.8
20260504203049 73 237 17.4 0.0 0.00 0.00 0.00 29 970.8
20260504201540 73 237 18.2 0.0 0.00 0.00 0.00 29 970.8
20260504200103 73 236 19.1 0.0 0.00 0.00 0.00 32 970.1
20260504194540 73 233 19.1 0.0 0.00 0.00 0.00 26 970.9
20260504193059 73 233 18.2 0.0 0.00 0.00 0.00 26 970.9
20260504191541 73 227 19.1 0.0 0.00 0.00 0.00 26 970.9
20260504190107 73 223 15.6 0.0 0.00 0.00 0.00 26 970.9
20260504184536 73 225 16.5 0.0 0.00 0.00 0.00 25 971.9
20260504183100 73 228 16.5 0.0 0.00 0.00 0.00 25 971.7
20260504181540 73 229 16.5 0.0 0.00 0.00 0.00 25 971.7
20260504180113 72 231 15.6 0.0 0.00 0.00 0.00 25 971.7
20260504174539 72 238 16.5 0.0 0.00 0.00 0.00 33 972.5
20260504173055 72 234 14.8 0.0 0.00 0.00 0.00 32 972.4
20260504171539 71 236 17.4 0.0 0.00 0.00 0.00 32 972.4
20260504170104 70 231 16.5 0.0 0.00 0.00 0.00 30 972.1
20260504160109 67 219 14.8 0.0 0.00 0.00 0.00 42 972.6
20260504150112 63 214 12.2 0.0 0.00 0.00 0.00 58 973.0
20260504140115 59 214 12.2 0.0 0.00 0.00 0.00 65 973.1